Location: Umburanas
(4.5000°S, 37.9667°W)
Time: 12:44:08
(UTC+00:00)

Cosmos 2333 Rocket - Pass Details

Date: 19 November 2019
Orbit: 837 x 864 km, 70.8° (Epoch: 05 December)

Event Time Altitude Azimuth Distance (km) Brightness Sun altitude
Rises 21:29:20 0° 182° (S) 3,392 5.7 -15.3°
Reaches altitude 10° 21:31:55 10° 175° (S) 2,457 4.8 -15.9°
Maximum altitude 21:37:10 40° 106° (ESE) 1,221 2.7 -17.1°
Enters shadow 21:39:18 29° 61° (ENE) 1,499 2.9 -17.6°
